User: anonymous   Login
Location: Wawayanda State Park
(41.1833°N, 74.4333°W)
Time: 10:54:28
(UTC-05:00)
Language:

Landsat 7 - Orbit

View from above orbital plane
View from above orbital plane
View from above satellite
View from above satellite

Ground track
Ground track

The orbit data is extracted from the following two-line orbital elements,

1 25682U 99020A   15059.15754619  .00000268  00000-0  69648-4 0  9994
2 25682 098.2289 130.4497 0001383 085.4032 274.7371 14.57103229844267
Epoch (UTC): 28 February 2015 03:46:51
Eccentricity: 0.0001383
inclination: 98.2289°
perigee height: 701 km
apogee height: 703 km
right ascension of ascending node: 130.4497°
argument of perigee: 85.4032°
revolutions per day: 14.57103229
mean anomaly at epoch: 274.7371°
orbit number at epoch: 84426

The dashed part of the orbit path shows where the satellite is in the earth's shadow,  

DLR